[[{"header":{"parameterUnit":"m.s-1","parameterCategory":1,"la1":30.2992,"la2":30.254,"lo1":-89.0895,"lo2":-89.0443,"dy":0.0025,"dx":0.0025,"nx":19,"ny":19,"refTime":"2026-04-04T03:00:00:Z","depth":0,"parameterNumber":2,"parameterNumberName":"U-component_of_WINDS"},"data":[0,0,0,-3.9535,-3.9537,-3.9637,-3.9638,-3.9773,-3.9775,0,0,0,0,0,0,0,0,0,0,0,-3.9509,-3.951,-3.9535,-3.9537,-3.9637,-3.9638,-3.9773,-3.9775,0,0,0,0,0,0,0,0,0,0,0,-3.9508,-3.9509,-3.9511,-3.9538,-3.9637,-3.9638,-3.9773,-3.9695,0,0,0,0,0,0,0,0,0,0,-3.9596,-3.9575,-3.9509,-3.9511,-3.9538,-3.9637,-3.9638,-3.9691,-3.97,-3.9731,0,-3.9759,0,-3.9769,-3.9784,-3.9784,0,0,0,-3.9535,-3.9568,-3.9592,-3.9511,-3.9539,-3.9637,-3.9591,-3.9696,-3.9706,-3.9742,-3.976,-3.9765,-3.9771,-3.9785,-3.9786,-3.9973,-3.9974,0,0,-3.9529,-3.9528,-3.9585,-3.9598,-3.9582,-3.9588,-3.9595,-3.9701,-3.9721,-3.9761,-3.9768,-3.9773,-3.9786,-3.9787,-3.9973,-3.9974,0,0,0,-3.9515,-3.9525,-3.9546,-3.9593,-3.961,-3.9591,-3.9598,-3.9716,-3.9724,-3.977,-3.9775,-3.9787,-3.9788,-3.9971,-3.9973,-4.002,0,0,0,-3.9511,-3.9516,-3.9544,-3.9544,-3.9608,-3.9664,-3.9611,-3.9716,-3.9728,-3.9774,-3.9787,-3.979,-3.997,-3.9972,-4.0016,-4.0042,0,0,0,-3.9501,-3.9515,-3.9531,-3.9544,-3.9587,-3.9663,-3.9676,-3.9719,-3.9732,-3.9785,-3.979,-3.997,-3.9972,-4.0013,-4.0036,-4.009,0,0,0,-3.9489,-3.9571,-3.9531,-3.9625,-3.9586,-3.9692,-3.9675,-3.9754,-3.9805,-3.9787,-3.997,-3.9973,-4.0012,-4.0033,-4.0087,-4.0134,-4.0154,0,0,-3.9591,-3.9583,-3.9639,-3.9606,-3.9718,-3.9676,-3.9797,-3.9844,-3.9851,-3.9933,-3.9937,-4.0018,-4.0036,-4.009,-4.0271,-4.0287,0,0,0,-3.9671,-3.971,-3.974,-3.9789,-3.9829,-3.9865,-3.9895,-3.9913,-3.9983,-3.9892,-4.0053,-4.0064,-4.0095,-4.0118,-4.0131,-4.0158,-3.9984,-3.9984,-3.9983,-3.9812,-3.9817,-3.9909,-3.9927,-3.9975,-4.0007,-4.0046,-4.0077,-4.0067,-4.0105,-4.0128,-4.0237,-4.0264,-4.0274,-4.0302,-4.0156,-4.0156,-4.0156,-4.0156,-3.9961,-4.0018,-4.0005,-4.009,-4.0095,-4.0167,-4.0203,-4.0194,-4.0262,-4.022,-4.0248,-4.0199,-4.0291,-4.0316,-4.016,-4.0159,-4.0159,-4.0158,-4.0158,-4.0052,-4.008,-4.0102,-4.0175,-4.0232,-4.0248,-4.0314,-4.0318,-4.0321,-4.0349,-4.0374,-4.0373,-4.0372,-4.0361,-4.0362,-4.0362,-4.0363,-4.0363,-4.0363,-4.0137,-4.016,-4.0215,-4.0267,-4.03,-4.0344,-4.038,-4.0413,-4.0451,-4.0448,-4.0448,-4.0434,-4.03,-4.0265,-4.0369,-4.0368,-4.0367,-4.0367,-4.0366,-4.0282,-4.025,-4.0335,-4.0368,-4.043,-4.0487,-4.0492,-4.056,-4.0588,-4.0621,-4.0604,-4.0504,-4.0495,-4.0485,-4.0455,-4.0602,-4.0602,-4.0602,-4.0602,-4.0357,-4.0354,-4.0442,-4.0496,-4.0549,-4.0563,-4.0661,-4.0691,-4.0718,-4.0736,-4.0716,-4.0679,-4.0668,-4.0666,-4.0651,-4.0624,-4.081,-4.081,-4.0811,-4.0446,-4.0449,-4.0529,-4.0555,-4.0605,-4.0648,-4.074,-4.0804,-4.0827,-4.0819,-4.075,-4.0742,-4.0682,-4.0662,-4.0648,-4.0625,-4.0575,0,0]},{"header":{"parameterUnit":"m.s-1","parameterCategory":1,"la1":30.2992,"la2":30.254,"lo1":-89.0895,"lo2":-89.0443,"dy":0.0025,"dx":0.0025,"nx":19,"ny":19,"refTime":"2026-04-04T03:00:00:Z","depth":0,"parameterNumber":3,"parameterNumberName":"V-component_of_WINDS"},"data":[0,0,0,2.2154,2.2154,2.2171,2.2171,2.2174,2.2174,0,0,0,0,0,0,0,0,0,0,0,2.2138,2.2138,2.2154,2.2154,2.2171,2.2171,2.2174,2.2174,0,0,0,0,0,0,0,0,0,0,0,2.2139,2.2138,2.2138,2.2154,2.2171,2.2171,2.2174,2.2167,0,0,0,0,0,0,0,0,0,0,2.2154,2.213,2.2138,2.2138,2.2154,2.2171,2.2171,2.2167,2.2168,2.2159,0,2.2148,0,2.2161,2.2173,2.2173,0,0,0,2.2161,2.213,2.2144,2.2138,2.2154,2.217,2.2165,2.2168,2.2168,2.2159,2.2149,2.2149,2.2161,2.2173,2.2173,2.2099,2.2098,0,0,2.216,2.2135,2.2144,2.2144,2.2141,2.2165,2.2166,2.2168,2.2155,2.2149,2.215,2.2161,2.2173,2.2172,2.21,2.2099,0,0,0,2.2153,2.2134,2.2149,2.2143,2.2148,2.2165,2.2166,2.2155,2.2162,2.215,2.2161,2.2172,2.2172,2.2101,2.2099,2.2042,0,0,0,2.2153,2.213,2.2148,2.2133,2.2147,2.2152,2.2152,2.2162,2.2163,2.2161,2.2172,2.2172,2.2101,2.21,2.2045,2.2018,0,0,0,2.2141,2.2129,2.2128,2.2132,2.2138,2.2152,2.216,2.2162,2.2169,2.2173,2.2172,2.2102,2.21,2.2048,2.2023,2.1992,0,0,0,2.2121,2.2075,2.2127,2.208,2.2138,2.2117,2.216,2.2145,2.2141,2.2172,2.2101,2.21,2.2049,2.2026,2.1995,2.1961,2.1945,0,0,2.2049,2.2065,2.204,2.2087,2.2051,2.2117,2.2072,2.2091,2.2113,2.2102,2.2101,2.2044,2.2023,2.1993,2.1864,2.1851,0,0,0,2.2009,2.1991,2.1987,2.1983,2.1998,2.2009,2.2038,2.2046,2.2038,2.2103,2.2026,2.2014,2.1997,2.1982,2.1971,2.1958,2.2092,2.2092,2.2092,2.187,2.1904,2.1865,2.19,2.1896,2.1929,2.1928,2.1944,2.1976,2.1958,2.1954,2.1872,2.1854,2.1845,2.1831,2.194,2.194,2.194,2.1939,2.1768,2.1747,2.1795,2.1775,2.181,2.1793,2.1823,2.1847,2.1836,2.1877,2.1864,2.1905,2.183,2.182,2.1935,2.1936,2.1937,2.1937,2.1937,2.1679,2.1675,2.1687,2.1687,2.1684,2.1722,2.171,2.1742,2.1773,2.176,2.176,2.1761,2.1765,2.1758,2.1758,2.1757,2.1757,2.1757,2.1757,2.1583,2.1598,2.1585,2.1599,2.1603,2.1611,2.1645,2.1649,2.1661,2.1686,2.1686,2.1721,2.1817,2.184,2.1752,2.1753,2.1754,2.1754,2.1754,2.1464,2.1497,2.1476,2.1479,2.15,2.1495,2.1539,2.1544,2.1552,2.1545,2.1584,2.1651,2.1669,2.1678,2.1697,2.1577,2.1577,2.1577,2.1577,2.1389,2.1403,2.139,2.1393,2.1401,2.1439,2.1414,2.1441,2.1474,2.1481,2.1504,2.1532,2.154,2.1554,2.1566,2.1584,2.1438,2.1438,2.1438,2.1318,2.1335,2.1307,2.1341,2.1361,2.1377,2.1355,2.1357,2.1401,2.1433,2.1487,2.1493,2.154,2.1554,2.1584,2.1602,2.1636,0,0]}]]